Regional Weather Roundup
Issued by NWS

Home | Current Version | Previous Version | Graphics & Text | Print | Product List | Glossary On
Versions: 1 2 3 4 5 6 7 8 9 10 11 12 13 14 15 16 17 18 19 20 21 22 23 24 25 26 27 28 29 30 31 32 33 34 35 36 37 38 39 40 41 42 43 44 45 46 47 48 49 50
000
ASUS43 KFSD 300002
RWRSD

WEATHER ROUNDUP FOR SOUTH DAKOTA
NATIONAL WEATHER SERVICE SIOUX FALLS SD
700 PM CDT SAT AUG 29 2015

NOTE: "FAIR" INDICATES FEW OR NO CLOUDS BELOW 12,000 FEET WITH NO
SIGNIFICANT WEATHER AND/OR OBSTRUCTIONS TO VISIBILITY.


SDZ001>005-009-010-012>017-300100-
NORTHWEST AND NORTH CENTRAL SOUTH DAKOTA

CITY           SKY/WX    TMP DP  RH WIND       PRES   REMARKS
FAITH            N/A     90  52  27 S10       29.89
MOBRIDGE       SUNNY     86  66  51 SE8       29.85F
$$

SDZ012>016-024>037-041>051-057-063-072>074-300100-
SOUTHWEST AND SOUTH CENTRAL SOUTH DAKOTA

CITY           SKY/WX    TMP DP  RH WIND       PRES   REMARKS
RAPID CTY ARPT SUNNY     86  55  34 SE9       29.93F
PIERRE         SUNNY     87  65  47 SE10      29.87F
CUSTER         SUNNY     83  37  19 S6        30.13S
ELLSWORTH AFB  SUNNY     89  54  29 S9        29.92F
PHILIP         SUNNY     89  65  44 SE6       29.88F
PINE RIDGE     SUNNY     87  45  23 S8        29.98F
WINNER         FAIR      84  66  54 SE9       29.94F
$$

SDZ004>011-016>023-039-040-300100-
NORTHEAST SOUTH DAKOTA

CITY           SKY/WX    TMP DP  RH WIND       PRES   REMARKS
ABERDEEN       SUNNY     81  73  76 S10       29.89F
WATERTOWN      SUNNY     74  67  78 S9        29.95F
BROOKINGS      SUNNY     73  63  68 S10       30.00S
$$

SDZ017-020-022-023-036>040-048>070-300100-
SOUTHEAST SOUTH DAKOTA

CITY           SKY/WX    TMP DP  RH WIND       PRES   REMARKS
SIOUX FALLS    PTSUNNY   72  64  76 S10       29.99F
HURON          SUNNY     79  70  74 S10       29.92S
MITCHELL       SUNNY     78  69  73 S10       29.95F
YANKTON        SUNNY     75  66  73 SE9       29.97F
$$

ABBREVIATIONS USED IN REMARKS
   TC - TEMPERATURE IN CELSIUS
  WCI - WIND CHILL INDEX
   HX - HEAT INDEX
  VSB - VISIBILITY




USA.gov is the U.S. government's official web portal to all federal, state and local government web resources and services.